Última Atualização: 03:04 - 16/05/2022

Relatório Meteorológico da Estação São Cristóvão
Dia Hora Direção Vento (graus) Velocidade Vento (Km/h) Temperatura (celsius) Pressão (hPa) Umidade (%)
16/05/2022 03:00:00 - 0,0 22,5 1006,5 94
16/05/2022 02:45:00 - 0,0 22,6 1006,5 95
16/05/2022 02:30:00 - 0,0 22,7 1006,4 94
16/05/2022 02:15:00 - 0,0 22,7 1006,5 90
16/05/2022 02:00:00 - 0,0 22,4 1006,5 83
16/05/2022 01:45:00 - 0,0 22,1 1006,0 81
16/05/2022 01:30:00 - 0,0 22,3 1006,1 80
16/05/2022 01:15:00 038 7,4 22,1 1006,2 79
16/05/2022 01:00:00 - 0,0 22,4 1006,1 77
16/05/2022 00:45:00 - 0,0 23,1 1006,2 74
16/05/2022 00:30:00 - 0,0 23,2 1006,2 71
16/05/2022 00:15:00 - 0,0 23,5 1006,5 69
16/05/2022 00:00:00 - 0,0 23,2 1006,4 69
15/05/2022 23:45:00 - 0,0 23,6 1006,7 67
15/05/2022 23:30:00 - 0,0 23,5 1006,7 69
15/05/2022 23:15:00 - 0,0 23,7 1007,0 67
15/05/2022 23:00:00 - 0,0 23,2 1007,0 69
15/05/2022 22:45:00 - 0,0 23,4 1006,7 69
15/05/2022 22:30:00 - 0,0 24,1 1007,0 64
15/05/2022 22:15:00 - 0,0 23,7 1007,0 68
15/05/2022 22:00:00 - 0,0 23,6 1007,0 67
15/05/2022 21:45:00 - 0,0 24,0 1007,0 65
15/05/2022 21:30:00 - 0,0 24,0 1007,0 65
15/05/2022 21:15:00 - 0,0 24,0 1006,7 64
15/05/2022 21:00:00 - 0,0 24,3 1006,7 64
15/05/2022 20:45:00 - 0,0 24,9 1006,7 61
15/05/2022 20:30:00 - 0,0 24,9 1006,5 60
15/05/2022 20:15:00 - 0,0 25,1 1006,5 60
15/05/2022 20:00:00 - 0,0 25,3 1006,2 58
15/05/2022 19:45:00 - 0,0 24,9 1006,2 59
15/05/2022 19:30:00 - 0,0 25,1 1006,2 61
15/05/2022 19:15:00 - 0,0 25,1 1006,0 60
15/05/2022 19:00:00 - 0,0 24,9 1006,0 60
15/05/2022 18:45:00 - 0,0 24,9 1006,1 61
15/05/2022 18:30:00 - 0,0 25,2 1006,0 60
15/05/2022 18:15:00 337 8,8 25,3 1006,1 60
15/05/2022 18:00:00 326 8,5 25,1 1005,8 60
15/05/2022 17:45:00 325 6,0 25,1 1005,8 62
15/05/2022 17:30:00 - 0,0 24,3 1005,8 66
15/05/2022 17:15:00 - 0,0 24,2 1005,5 69
15/05/2022 17:00:00 - 0,0 24,2 1005,5 73
15/05/2022 16:45:00 - 0,0 24,5 1005,3 71
15/05/2022 16:30:00 - 0,0 24,5 1005,5 69
15/05/2022 16:15:00 - 0,0 24,6 1005,5 69
15/05/2022 16:00:00 - 0,0 24,5 1005,3 70
15/05/2022 15:45:00 - 0,0 24,2 1005,4 70
15/05/2022 15:30:00 - 0,0 24,2 1005,4 71
15/05/2022 15:15:00 - 0,0 25,1 1005,0 66
15/05/2022 15:00:00 - 0,0 24,6 1005,4 68